Location: Northcutt
(34.7304°N, 84.4305°W)
Time: 17:51:47
(UTC+00:00)

SR - Pass Details

Date: 05 October 2022
Orbit: 577 x 874 km, 66.7° (Epoch: 05 December)

Event Time Altitude Azimuth Distance (km) Brightness Sun altitude
Rises 01:30:46 0° 204° (SSW) 3,382 ? -28.0°
Reaches altitude 10° 01:33:11 10° 204° (SSW) 2,476 ? -28.5°
Enters shadow 01:37:04 45° 203° (SSW) 1,165 ? -29.3°
Maximum altitude 01:39:00 88° 115° (ESE) 878 - -29.6°
Drops below altitude 10° 01:44:55 10° 27° (NNE) 2,524 - -30.8°
Sets 01:47:24 0° 27° (NNE) 3,451 - -31.3°
